sat.trackr.live / text

‹ back to catalog

STARLINK-31456

NORAD 59007 · 2024-036K

PAYLOAD ACTIVE UNKNOWN

§ Identity

Operator
Country
US
Launch date
2024-02-23
Launch site
AFWTR
Launch vehicle
Mass (kg)
RCS (m²)

Purposes: comms

External: N2YO · Heavens-Above · Gunter

§ Orbital elements

Epoch: 2026-09-20T08:32:05.580096Z

Period
93.85 min
Inclination
53.1586°
Eccentricity
0.0001230
Mean motion
15.34388833 rev/d
Perigee alt
461.9 km
Apogee alt
463.6 km
Semi-major
6,840.9 km
B*
5.9895e-5
RAAN
252.0696°
Arg perigee
92.3216°
Mean anomaly
267.7928°
Rev number
14,515

§ Raw data

STARLINK-314561 59007U 24036K   26263.35562014  .00001647  00000+0  59895-4 0  99982 59007  53.1586 252.0696 0001230  92.3216 267.7928 15.34388833145153

JSON: /api/v1/satellites/59007 · /tle

For live sub-satellite position, see the globe view (requires WebGL).

§ Visibility from observer

Set your observer location to see the next 7 days of passes ≥ 10°. The values pass through the URL so the page stays shareable.

No JS? Fill the form by hand. The geolocation button needs JavaScript.